Location: Unspecified
(0.0000°N, 0.0000°E)
Time: 22:42:28
(UTC+00:00)

Hubble Space Telescope - Pass Details

Date: 23 January 2022
Orbit: 534 x 538 km, 28.5° (Epoch: 27 January)

Event Time Altitude Azimuth Distance (km) Brightness Sun altitude
Rises 19:42:07 0° 256° (WSW) 2,666 5.9 -21.2°
Reaches altitude 10° 19:44:32 10° 266° (W) 1,775 4.4 -21.8°
Maximum altitude 19:48:14 32° 330° (NNW) 914 1.9 -22.6°
Enters shadow 19:48:33 32° 340° (NNW) 923 1.9 -22.7°
